Location: Ciserano
(45.5833°N, 9.6000°E)
Time: 13:12:44
(UTC+00:00)

NOAA 6 - Pass Details

Date: 29 November 2020
Orbit: 773 x 786 km, 98.7° (Epoch: 26 January)

Event Time Altitude Azimuth Distance (km) Brightness Sun altitude
Rises 06:04:31 0° 8° (N) 3,262 7.1 -6.3°
Reaches altitude 10° 06:06:55 10° 2° (N) 2,330 6.3 -5.9°
Maximum altitude 06:11:46 44° 292° (WNW) 1,059 4.3 -5.1°
Drops below altitude 10° 06:16:35 10° 221° (SW) 2,315 6.4 -4.4°
Sets 06:18:58 0° 215° (SW) 3,238 7.2 -4.0°
